Simultaneous Nadir Overpasses (SNOs) Predictions

Prediction of SNOs between AQUA and NOAA-19 Satellite Orbit:

Table of predicted SNOs for the next 14.0 days since TLE Epoch: 2/22/2019
Index Date (AQUA) Time (AQUA) Lat,Lon (AQUA) SZA (AQUA ) Date (NOAA-19) Time (NOAA-19) Lat,Lon (NOAA-19) SZA (NOAA-19 ) Distance(km) Time Diff (sec)
1 02/24/2019 13:54:43 80.54, -64.32 91.99 02/24/2019 13:53:35 80.52, -64.47 92.03 3.52 68
2 02/24/2019 14:44:10 -80.54, 103.26 88.01 02/24/2019 14:44:39 -80.55, 103.34 88.03 1.37 29
3 02/26/2019 20:17:54 80.53,-160.00 91.13 02/26/2019 20:18:03 80.54,-160.15 91.14 2.97 9
4 03/01/2019 01:51:39 -80.52, -63.37 89.74 03/01/2019 01:51:36 -80.54, -63.37 89.72 1.99 3
5 03/03/2019 07:25:24 80.54, 32.97 89.45 03/03/2019 07:25:01 80.52, 32.96 89.44 2.49 23
6 03/03/2019 08:14:51 -80.54,-159.37 90.57 03/03/2019 08:16:05 -80.53,-159.53 90.59 2.92 74
7 03/05/2019 12:59:08 -80.51, 129.93 91.49 03/05/2019 12:58:33 -80.53, 129.83 91.45 3.19 35
8 03/05/2019 13:48:35 80.54, -62.75 88.56 03/05/2019 13:49:29 80.54, -62.73 88.53 0.43 54
9 03/07/2019 18:32:52 80.50,-133.48 87.63 03/07/2019 18:31:58 80.52,-133.59 87.69 2.92 54




NCC Satellite Simultaneous Nadir Overpasses (SNOs) Prediction Service
